Minot, ND

5:48 PM CST on November 21, 2017 (GMT -0600)
Minot International

Weather History for KMOT - October, 2013

Change the Weather History Date:

Saturday, October 19, 2013

  Actual Average Record
Temperature  
Mean Temperature 41 °F 43 °F  
Max Temperature 46 °F 54 °F 84 °F (2003)
Min Temperature 35 °F 33 °F 5 °F (1917)
Degree Days  
Heating Degree Days 24 22  
Month to date heating degree days 344 339  
Since 1 July heating degree days 535 659  
Cooling Degree Days 0 0  
Month to date cooling degree days 0 0  
Year to date cooling degree days 421 444  
Moisture  
Dew Point 29 °F    
Average Humidity 70    
Maximum Humidity 92    
Minimum Humidity 48    
Precipitation  
Precipitation 0.09 in 0.04 in 0.72 in (1932)
Month to date precipitation 2.23 0.80  
Year to date precipitation 24.57 15.70  
Sea Level Pressure  
Sea Level Pressure 29.77 in    
Wind  
Wind Speed 6 mph (SE)    
Max Wind Speed 13 mph    
Max Gust Speed 16 mph    
Visibility 10 miles    
Events Rain , Snow    
T = Trace of Precipitation, MM = Missing Value Source: NWS Daily Summary

Daily Weather History Graph

Daily Weather History Graph

Search for Another Location

Airport or City:

Trip Planner

Search our weather history database for the weather conditions in past years. The results will help you decide how hot, cold, wet, or windy it might be!

Date:

Astronomy

Oct. 19, 2013 Rise Set
Actual Time 8:11 AM CDT 6:48 PM CDT
Civil Twilight 7:39 AM CDT 7:19 PM CDT
Nautical Twilight 7:03 AM CDT 7:55 PM CDT
Astronomical Twilight 6:27 AM CDT 8:31 PM CDT
Moon 7:11 PM CDT (10/19) 8:55 AM CDT (10/19)
Length of Visible Light 11h 40m
Length of Day
10h 36m
Waxing Gibbous, 99% of the Moon is Illuminated
Oct 19
Waxing Gibbous
Oct 26
Last Quarter
Nov 3
New
Nov 9
First Quarter
Nov 17
Full

Hourly Weather History & Observations

Time (CDT) Temp. Windchill Dew Point Humidity Pressure Visibility Wind Dir Wind Speed Gust Speed Precip Events Conditions
12:54 AM 36.0 °F 29.6 °F 28.0 °F 73% 29.83 in 10.0 mi North 8.1 mph - N/A   Overcast
1:54 AM 37.0 °F 32.4 °F 27.0 °F 67% 29.83 in 10.0 mi NW 5.8 mph - N/A   Overcast
2:54 AM 36.0 °F 31.1 °F 27.0 °F 70% 29.83 in 10.0 mi WNW 5.8 mph - N/A   Overcast
3:54 AM 36.0 °F 30.3 °F 28.0 °F 73% 29.83 in 10.0 mi NW 6.9 mph - 0.00 in Snow Light Snow
4:54 AM 36.0 °F 30.3 °F 27.0 °F 70% 29.83 in 10.0 mi NNW 6.9 mph - 0.00 in   Overcast
5:54 AM 36.0 °F 31.1 °F 27.0 °F 70% 29.83 in 10.0 mi NNW 5.8 mph - N/A   Overcast
6:54 AM 36.0 °F 32.1 °F 25.0 °F 64% 29.85 in 10.0 mi NNW 4.6 mph - N/A   Overcast
7:54 AM 35.1 °F 32.2 °F 25.0 °F 67% 29.85 in 10.0 mi NNW 3.5 mph - N/A   Overcast
8:54 AM 36.0 °F - 23.0 °F 59% 29.85 in 10.0 mi Calm Calm - N/A   Overcast
9:54 AM 37.0 °F 34.5 °F 21.0 °F 52% 29.84 in 10.0 mi South 3.5 mph - N/A   Overcast
10:54 AM 37.9 °F 35.5 °F 19.9 °F 48% 29.84 in 10.0 mi ESE 3.5 mph - N/A   Overcast
11:54 AM 39.0 °F 35.7 °F 21.9 °F 50% 29.83 in 10.0 mi South 4.6 mph - N/A   Overcast
12:18 PM 39.2 °F 35.0 °F 21.2 °F 49% 29.77 in 10.0 mi SE 5.8 mph - N/A   Overcast
12:42 PM 41.0 °F 38.0 °F 21.2 °F 45% 29.77 in 10.0 mi SE 4.6 mph - N/A   Overcast
12:54 PM 41.0 °F 36.4 °F 24.1 °F 51% 29.81 in 10.0 mi SSE 6.9 mph - N/A   Overcast
1:54 PM 44.1 °F 40.1 °F 28.0 °F 53% 29.77 in 10.0 mi SE 6.9 mph - N/A   Overcast
2:54 PM 45.0 °F 41.8 °F 33.1 °F 63% 29.75 in 10.0 mi South 5.8 mph - N/A   Overcast
3:54 PM 45.0 °F 41.8 °F 37.0 °F 74% 29.73 in 10.0 mi SE 5.8 mph - 0.01 in   Overcast
4:54 PM 46.0 °F 42.5 °F 37.9 °F 73% 29.72 in 10.0 mi SE 6.9 mph - 0.00 in   Overcast
5:54 PM 45.0 °F 39.7 °F 37.9 °F 76% 29.70 in 10.0 mi ESE 10.4 mph - 0.00 in Rain Light Rain
6:54 PM 41.0 °F 36.4 °F 35.1 °F 79% 29.69 in 10.0 mi East 6.9 mph - 0.00 in   Overcast
7:54 PM 39.9 °F 37.8 °F 35.1 °F 83% 29.68 in 10.0 mi East 3.5 mph - N/A   Partly Cloudy
8:54 PM 39.9 °F 32.9 °F 35.1 °F 83% 29.66 in 10.0 mi ESE 11.5 mph - N/A   Overcast
9:54 PM 39.0 °F 34.8 °F 36.0 °F 89% 29.65 in 9.0 mi SSE 5.8 mph - 0.00 in Rain Light Rain
10:54 PM 39.0 °F 34.8 °F 37.0 °F 93% 29.62 in 9.0 mi SSE 5.8 mph - 0.04 in Rain Light Rain
11:54 PM 39.9 °F - 37.9 °F 93% 29.62 in 7.0 mi Calm Calm - 0.01 in Rain Light Rain